Regional Weather Roundup
Issued by NWS Charleston, SC

Current Version | Previous Version | Graphics & Text | Print | Product List | Glossary On
Versions: 1 2 3 4 5 6 7 8 9 10 11 12 13 14 15 16 17 18 19 20 21 22 23 24 25 26 27 28 29 30 31 32 33 34 35 36 37 38 39 40 41 42 43 44 45 46 47 48 49 50
000
ASUS42 KCHS 250712
RWRCHS

REGIONAL WEATHER ROUNDUP
NATIONAL WEATHER SERVICE CHARLESTON SC
300 AM EDT MON MAY 25 2015

NOTE: "FAIR" INDICATES FEW OR NO CLOUDS BELOW 12,000 FEET WITH NO
SIGNIFICANT WEATHER AND/OR OBSTRUCTIONS TO VISIBILITY.

NOT ALL STATIONS ARE QUALITY CONTROLLED BY THE NATIONAL
WEATHER SERVICE. USE DATA WITH CAUTION...ESPECIALLY
DEWPOINT OBSERVATIONS.

SCZ027-030-031-034>040-042>050-250800-
...SOUTHEAST SOUTH CAROLINA...

CITY           SKY/WX    TMP DP  RH WIND       PRES   REMARKS
N CHARLESTON   PTCLDY    64  58  80 CALM      30.29S
WATERFRONT PAR   N/A     74  63  68 SE15      30.26F
MOUNT PLEASANT FAIR      72  59  64 E3        30.29S
JOHNS ISLAND   SUNNY     72  63  73 E7        30.28F
PINOPOLIS        N/A     68  61  77 CALM      30.21F
MONCKS CORNER  FAIR      61  57  88 CALM      30.30S
SUMMERVILLE    FAIR      59  59 100 CALM      30.30S
BEAUFORT MCAS  CLOUDY    75  65  70 E7        30.26F
BEAUFORT ARPT  CLOUDY    73  64  73 E5        30.26S
HILTON HEAD IS CLEAR     75  66  73 NE6       30.27S
WALTERBORO     SUNNY     61  59  94 E5        30.29S
ALLENDALE      FAIR      66  61  82 CALM      30.27S

...SOUTHERN MIDLANDS AND PEE DEE...

CITY           SKY/WX    TMP DP  RH WIND       PRES   REMARKS
GEORGETOWN     NOT AVBL
KINGSTREE      NOT AVBL
ORANGEBURG     CLEAR     63  57  81 CALM      30.29F
BARNWELL       FAIR      64  61  88 CALM      30.29S
AIKEN          FAIR      61  55  82 NE3       30.32F
MANNING        FAIR      55  54  94 CALM      30.30F
COLUMBIA       CLEAR     65  57  75 E3        30.30S
SUMTER         CLEAR     58  55  88 NE6       30.29F
FLORENCE       CLEAR     62  57  83 CALM      30.31F
MYRTLE BEACH   PTCLDY    72  57  60 SE10      30.33S
N MYRTLE BEACH CLEAR     73  57  57 SE7       30.31F

$$

GAZ063-065-086>088-099>101-113>116-118-119-134>141-150-250800-
...SOUTHEAST GEORGIA...

CITY           SKY/WX    TMP DP  RH WIND       PRES   REMARKS
SAVANNAH ARPT  CLOUDY    75  64  68 E8        30.25F
HUNTER AAF     MOCLDY    76  66  72 E10       30.22F
FORT STEWART   CLOUDY    73  66  79 E5        30.21F
STATESBORO     CLEAR     68  66  92 CALM      30.25F
SYLVANIA       CLOUDY    68  65  89 E6        30.27S
CLAXTON        FAIR      68  64  88 E5        30.24F

...CSRA...CENTRAL AND FAR SOUTHEAST GEORGIA...

CITY           SKY/WX    TMP DP  RH WIND       PRES   REMARKS
THOMSON        CLEAR     66  63  89 CALM      30.32S
AUGUSTA-BUSH   CLEAR     60  59  96 CALM      30.28S
AUGUSTA-DANIEL CLEAR     69  59  70 E5        30.29S
SWAINSBORO     CLOUDY    72  66  83 E3        30.26S
VIDALIA        MOCLDY    70  64  83 CALM      30.25S
EASTMAN        CLOUDY    68  68 100 E3        30.26F
HAZLEHURST     PTSUNNY   71  67  88 E3        30.23S
ALMA           CLOUDY    67  65  93 CALM      30.22F
WAYCROSS       PTCLDY    69  68  99 CALM      30.22F
JESUP          FAIR      72  70  94 CALM      30.23S
BAXLEY         CLOUDY    70  68  94 CALM      30.23S
BRUNSWICK        N/A     77  68  73 E8        30.22F
SAINT SIMONS   NOT AVBL

$$

SCZ027-028-034-036>038-045-046-048>050-GAZ119-141-250800-
...LAKE AND SUPPLEMENTAL COASTAL OBSERVATIONS...

STATION/POSITION TIME  TEMP    WIND        PRES    WAVE   SWELL
                       AIR SEA DIR/SP/G            HT/PER HT/PER/DIR
                 (UTC) (F)     (DEG/KT/KT) (MB)    (FT/S) (FT/S/D)
UPR LAKE MARION  NOT AVBL
WINYAH BAY       0545   73     120/ 10     1025.0
LAKE MURRAY      0600   69     110/  3/  7 1025.7F
ACE BASIN NERRS  NOT AVBL
FORT PULASKI     0600   76 77  100/ 10/ 13 1025.0F
SAPELO ISLAND    0600   76     100/  7     1024.0S

$$

ANZ835-935-AMZ111-154-330-350-352-354-370-450-454-472-250800-
...C-MAN AND BUOY OBSERVATIONS...

STATION/POSITION TIME  TEMP    WIND        PRES    WAVE   SWELL
                       AIR SEA DIR/SP/G            HT/PER HT/PER/DIR
                 (UTC) (F)     (DEG/KT/KT) (MB)    (FT/S) (FT/S/D)
BUOY 41004       0650   74 75  110/ 14/ 16 1024.9F   5/ 7   3/ 7
BUOY 41008       0650   75 75  100/ 12/ 14 1023.6F   6/ 8   5/100/ 8
FOLLY BEACH CMAN 0700   74     110/ 15/ 16 1025.4F
CAPERS NEARSHORE 0608   74     130/ 14/ 19 1025.9F
FRIPP NEARSHORE  0600   75     100/ 16/ 19 1023.9F


STATION/POSITION TIME  TEMP    WIND        PRES    WAVE   SWELL
                       AIR SEA DIR/SP/G            HT/PER HT/PER/DIR
                 (UTC) (F)     (DEG/KT/KT) (MB)    (FT/S) (FT/S/D)
5E ST. MARYS GA  0621      77                N/A     5/ 8
FRYING PAN BUOY  0650   74 74  120/ 10/ 12 1026.9F   4/ 7   3/120/ 7
BUOY 41025       0650   74 77  140/  8/ 10 1027.0F   2/ 8   2/ 60/ 8
CAPE LOOKOUT NC  0700   72     150/  7/  8 1026.9F
BUOY 41002       0650   73 74  110/ 14/ 16 1026.2S   4/ 6   2/ 90/ 8
BUOY 41010       0620   78 79  100/ 14/ 16 1022.5F
ST AUGUSTINE FL  0700   75 77  120/  8/  9 1023.0F


$$


USA.gov is the U.S. government's official web portal to all federal, state and local government web resources and services.